Location: Wingville
(42.9917°N, 90.4915°W)
Time: 02:57:18
(UTC+00:00)

CUBESAT XI-V - Pass Details

Date: 02 July 2022
Orbit: 668 x 690 km, 98.1° (Epoch: 13 August)

Event Time Altitude Azimuth Distance (km) Brightness Sun altitude
Exits shadow 06:50:35 16° 112° (ESE) 1,740 ? -23.2°
Maximum altitude 06:53:12 26° 67° (ENE) 1,319 ? -23.1°
Drops below altitude 10° 06:57:00 10° 11° (N) 2,108 ? -22.9°
Sets 06:59:31 0° 359° (N) 3,024 ? -22.8°
